Index of /pmb/codes/nwprod/ekdmos.v2.0.0/fix

NameLast modifiedSize

Parent Directory  -
ekd_cmce_tdp.EQ.10010331.t12z15-Nov-2016 14:07 204M
ekd_gefs_grb2tomdlp.40.t00z.lst15-Nov-2016 14:07 887K
naefs_akgekdgb2sect4dew_4.t00z15-Nov-2016 14:07 5.7K
naefs_akgekdgb2sect4tmp_mean_2.t12z15-Nov-2016 14:07 19K
naefs_akgekdgb2sect5min_1.t12z15-Nov-2016 14:07 1.8K
naefs_akgekdgb2sect5tmp_mean_2.t12z15-Nov-2016 14:07 9.9K
naefs_cogekdgb2sect4dew_2.t12z15-Nov-2016 14:07 2.6K
naefs_cogekdgb2sect4dew_6.t00z15-Nov-2016 14:07 2.6K
naefs_cogekdgb2sect4tmp_3.t00z15-Nov-2016 14:07 2.6K
naefs_cogekdgb2sect4tmp_10.t00z15-Nov-2016 14:07 2.6K
naefs_cogekdgb2sect5dew_1.t00z15-Nov-2016 14:07 1.4K
naefs_cogekdgb2sect5dew_mean_2.t12z15-Nov-2016 14:07 7.2K
naefs_cogekdgb2sect5min_mean_1.t12z15-Nov-2016 14:07 699
naefs_cogekdgb2sect5tmp_1.t00z15-Nov-2016 14:07 1.4K
naefs_cogekdgb2sect5tmp_mean_2.t00z15-Nov-2016 14:07 7.2K
naefs_higekdgb2sect4dew_3.t00z15-Nov-2016 14:07 5.7K
naefs_higekdgb2sect5dew_mean_1.t00z15-Nov-2016 14:07 17K
naefs_higekdgb2sect5max_2.t12z15-Nov-2016 14:07 1.8K
naefs_prgekdgb2sect4max_1.t12z15-Nov-2016 14:07 3.1K
naefs_prgekdgb2sect4tmp_6.t12z15-Nov-2016 14:07 5.2K
naefs_prgekdgb2sect5dew_4.t12z15-Nov-2016 14:07 2.9K
ekd_analysisgrconst_ak15-Nov-2016 14:07 938K
ekd_cmce_grb2tomdlp.DD15-Nov-2016 14:07 856K
ekd_cmce_tdp.EQ.04010930.t12z15-Nov-2016 14:07 249M
ekd_gefs_grb2tomdlp.44.lst15-Nov-2016 14:07 887K
ekd_gefs_grb2tomdlp.48.lst15-Nov-2016 14:07 887K
ekd_gefs_grb2tomdlp.57.lst15-Nov-2016 14:07 887K
ekd_gefs_tdp.EQ.04010930.t00z15-Nov-2016 14:07 250M
naefs_akgekdgb2sect4dew_1.t12z15-Nov-2016 14:07 5.7K
naefs_akgekdgb2sect4dew_4.t12z15-Nov-2016 14:07 5.7K
naefs_akgekdgb2sect4dew_mean_1.t00z15-Nov-2016 14:07 14K
naefs_akgekdgb2sect4max_2.t12z15-Nov-2016 14:07 3.5K
naefs_akgekdgb2sect4max_mean_2.t12z15-Nov-2016 14:07 5.3K
naefs_akgekdgb2sect4min_1.t00z15-Nov-2016 14:07 3.1K
naefs_akgekdgb2sect4min_mean_2.t12z15-Nov-2016 14:07 5.7K
naefs_akgekdgb2sect4tmp_5.t00z15-Nov-2016 14:07 4.8K
naefs_akgekdgb2sect5dew_6.t00z15-Nov-2016 14:07 2.7K
naefs_akgekdgb2sect5dew_mean_1.t00z15-Nov-2016 14:07 7.0K
naefs_akgekdgb2sect5max_1.t00z15-Nov-2016 14:07 1.8K
naefs_akgekdgb2sect5max_mean_2.t12z15-Nov-2016 14:07 2.6K
naefs_akgekdgb2sect5min_2.t00z15-Nov-2016 14:07 1.8K
naefs_akgekdgb2sect5tmp_2.t12z15-Nov-2016 14:07 2.9K
naefs_akgekdgb2sect5tmp_3.t00z15-Nov-2016 14:07 2.9K
naefs_akgekdgb2sect5tmp_5.t12z15-Nov-2016 14:07 2.5K
naefs_akgekdgb2sect5tmp_6.t00z15-Nov-2016 14:07 2.7K
naefs_cogekdgb2sect4dew_3.t12z15-Nov-2016 14:07 2.6K
naefs_cogekdgb2sect4dew_7.t00z15-Nov-2016 14:07 2.6K
naefs_cogekdgb2sect4dew_10.t12z15-Nov-2016 14:07 2.6K
naefs_cogekdgb2sect4max_2.t00z15-Nov-2016 14:07 2.2K
naefs_cogekdgb2sect4max_mean_1.t12z15-Nov-2016 14:07 1.3K
naefs_cogekdgb2sect4min_3.t00z15-Nov-2016 14:07 2.2K
naefs_cogekdgb2sect4min_mean_2.t00z15-Nov-2016 14:07 1.8K
naefs_cogekdgb2sect4tmp_6.t12z15-Nov-2016 14:07 2.6K
naefs_cogekdgb2sect4tmp_9.t12z15-Nov-2016 14:07 2.6K
naefs_cogekdgb2sect4tmp_10.t12z15-Nov-2016 14:07 2.6K
naefs_cogekdgb2sect4tmp_11.t00z15-Nov-2016 14:07 3.1K
naefs_cogekdgb2sect4tmp_mean_2.t12z15-Nov-2016 14:07 14K
naefs_cogekdgb2sect5dew_1.t12z15-Nov-2016 14:07 1.4K
naefs_cogekdgb2sect5dew_4.t12z15-Nov-2016 14:07 1.4K
naefs_cogekdgb2sect5dew_5.t00z15-Nov-2016 14:07 1.4K
naefs_cogekdgb2sect5dew_7.t12z15-Nov-2016 14:07 1.4K
naefs_cogekdgb2sect5dew_11.t12z15-Nov-2016 14:07 1.6K
naefs_cogekdgb2sect5dew_mean_3.t12z15-Nov-2016 14:07 3.2K
naefs_cogekdgb2sect5max_mean_2.t00z15-Nov-2016 14:07 929
naefs_cogekdgb2sect5min_mean_2.t00z15-Nov-2016 14:07 929
naefs_cogekdgb2sect5tmp_1.t12z15-Nov-2016 14:07 1.4K
naefs_cogekdgb2sect5tmp_4.t12z15-Nov-2016 14:07 1.4K
naefs_cogekdgb2sect5tmp_7.t12z15-Nov-2016 14:07 1.4K
naefs_cogekdgb2sect5tmp_mean_2.t12z15-Nov-2016 14:07 7.2K
naefs_higekdgb2sect4dew_mean_1.t00z15-Nov-2016 14:07 33K
naefs_higekdgb2sect4max_1.t12z15-Nov-2016 14:07 3.1K
naefs_higekdgb2sect4max_2.t00z15-Nov-2016 14:07 3.5K
naefs_higekdgb2sect4tmp_4.t00z15-Nov-2016 14:07 5.7K
naefs_higekdgb2sect5dew_1.t12z15-Nov-2016 14:07 2.9K
naefs_higekdgb2sect5dew_5.t00z15-Nov-2016 14:07 2.5K
naefs_higekdgb2sect5min_1.t00z15-Nov-2016 14:07 1.6K
naefs_higekdgb2sect5tmp_1.t12z15-Nov-2016 14:07 2.9K
naefs_higekdgb2sect5tmp_mean_1.t00z15-Nov-2016 14:07 17K
naefs_prgekdgb2sect315-Nov-2016 14:07 302
naefs_prgekdgb2sect4dew_1.t00z15-Nov-2016 14:07 5.7K
naefs_prgekdgb2sect5dew_2.t00z15-Nov-2016 14:07 2.9K
naefs_prgekdgb2sect5min_2.t00z15-Nov-2016 14:07 1.8K
naefs_prgekdgb2sect5tmp_2.t00z15-Nov-2016 14:07 2.9K
ekd_analysisgrconst_co15-Nov-2016 14:07 2.9M
ekd_bogusdew.lst15-Nov-2016 14:07 278
ekd_cmce.vrbls00.wgrib15-Nov-2016 14:07 1.7K
ekd_cmce_mxmn.EQ.10010331.t00z15-Nov-2016 14:07 139M
ekd_gefs_grb2tomdlp.41.lst15-Nov-2016 14:07 887K
ekd_gefs_grb2tomdlp.42.lst15-Nov-2016 14:07 887K
ekd_gefs_grb2tomdlp.49.lst15-Nov-2016 14:07 887K
ekd_gefs_grb2tomdlp.50.lst15-Nov-2016 14:07 887K
ekd_gefs_grb2tomdlp.55.lst15-Nov-2016 14:07 887K
ekd_gefs_grb2tomdlp.58.lst15-Nov-2016 14:07 887K
ekd_gefs_grb2tomdlp.DD15-Nov-2016 14:07 887K
ekd_gefs_mxmn.EQ.10010331.t12z15-Nov-2016 14:07 272M
ekd_gefs_tdp.EQ.04010930.t12z15-Nov-2016 14:07 261M
ekd_rafile_template15-Nov-2016 14:07 39K
ekd_threshold15-Nov-2016 14:07 5.8M
naefs_akgekdgb2sect4dew_3.t00z15-Nov-2016 14:07 5.7K
naefs_akgekdgb2sect4dew_5.t12z15-Nov-2016 14:07 4.8K
naefs_akgekdgb2sect4dew_6.t00z15-Nov-2016 14:07 5.2K
naefs_akgekdgb2sect4dew_mean_2.t00z15-Nov-2016 14:07 19K
naefs_akgekdgb2sect4max_1.t00z15-Nov-2016 14:07 3.5K
naefs_akgekdgb2sect4min_1.t12z15-Nov-2016 14:07 3.5K
naefs_akgekdgb2sect4min_mean_1.t00z15-Nov-2016 14:07 1.3K
naefs_akgekdgb2sect4tmp_2.t12z15-Nov-2016 14:07 5.7K
naefs_akgekdgb2sect4tmp_mean_1.t00z15-Nov-2016 14:07 14K
naefs_akgekdgb2sect5dew_1.t00z15-Nov-2016 14:07 2.9K
naefs_akgekdgb2sect5dew_4.t00z15-Nov-2016 14:07 2.9K
naefs_akgekdgb2sect5dew_6.t12z15-Nov-2016 14:07 2.7K
naefs_akgekdgb2sect5dew_mean_1.t12z15-Nov-2016 14:07 7.0K
naefs_akgekdgb2sect5max_1.t12z15-Nov-2016 14:07 1.6K
naefs_akgekdgb2sect5max_2.t00z15-Nov-2016 14:07 1.8K
naefs_akgekdgb2sect5max_mean_1.t00z15-Nov-2016 14:07 678
naefs_akgekdgb2sect5min_mean_1.t00z15-Nov-2016 14:07 678
naefs_akgekdgb2sect5tmp_1.t00z15-Nov-2016 14:07 2.9K
naefs_akgekdgb2sect5tmp_mean_1.t12z15-Nov-2016 14:07 7.0K
naefs_cogekdgb2sect315-Nov-2016 14:07 289
naefs_cogekdgb2sect4dew_1.t00z15-Nov-2016 14:07 2.6K
naefs_cogekdgb2sect4dew_4.t00z15-Nov-2016 14:07 2.6K
naefs_cogekdgb2sect4dew_mean_3.t12z15-Nov-2016 14:07 6.1K
naefs_cogekdgb2sect4max_2.t12z15-Nov-2016 14:07 2.2K
naefs_cogekdgb2sect4max_mean_2.t12z15-Nov-2016 14:07 1.8K
naefs_cogekdgb2sect4max_mean_3.t00z15-Nov-2016 14:07 4.0K
naefs_cogekdgb2sect4min_1.t00z15-Nov-2016 14:07 2.2K
naefs_cogekdgb2sect4min_3.t12z15-Nov-2016 14:07 2.6K
naefs_cogekdgb2sect4tmp_1.t00z15-Nov-2016 14:07 2.6K
naefs_cogekdgb2sect4tmp_4.t12z15-Nov-2016 14:07 2.6K
naefs_cogekdgb2sect4tmp_7.t12z15-Nov-2016 14:07 2.6K
naefs_cogekdgb2sect4tmp_8.t00z15-Nov-2016 14:07 2.6K
naefs_cogekdgb2sect4tmp_12.t00z15-Nov-2016 14:07 3.5K
naefs_cogekdgb2sect4tmp_mean_3.t00z15-Nov-2016 14:07 6.1K
naefs_cogekdgb2sect5dew_2.t00z15-Nov-2016 14:07 1.4K
naefs_cogekdgb2sect5dew_2.t12z15-Nov-2016 14:07 1.4K
naefs_cogekdgb2sect5dew_6.t00z15-Nov-2016 14:07 1.4K
naefs_cogekdgb2sect5dew_10.t00z15-Nov-2016 14:07 1.4K
naefs_cogekdgb2sect5max_3.t12z15-Nov-2016 14:07 1.1K
naefs_cogekdgb2sect5max_mean_3.t00z15-Nov-2016 14:07 2.0K
naefs_cogekdgb2sect5max_mean_3.t12z15-Nov-2016 14:07 1.8K
naefs_cogekdgb2sect5min_2.t00z15-Nov-2016 14:07 1.1K
naefs_cogekdgb2sect5min_mean_2.t12z15-Nov-2016 14:07 929
naefs_cogekdgb2sect5min_mean_3.t00z15-Nov-2016 14:07 1.8K
naefs_cogekdgb2sect5tmp_3.t00z15-Nov-2016 14:07 1.4K
naefs_cogekdgb2sect5tmp_6.t00z15-Nov-2016 14:07 1.4K
naefs_cogekdgb2sect5tmp_mean_1.t00z15-Nov-2016 14:07 6.5K
naefs_cogekdgb2sect5tmp_mean_3.t12z15-Nov-2016 14:07 3.2K
naefs_higekdgb2sect4dew_4.t12z15-Nov-2016 14:07 5.7K
naefs_higekdgb2sect4max_2.t12z15-Nov-2016 14:07 3.5K
naefs_higekdgb2sect4min_1.t00z15-Nov-2016 14:07 3.1K
naefs_higekdgb2sect4min_mean_1.t00z15-Nov-2016 14:07 6.6K
naefs_higekdgb2sect4tmp_2.t00z15-Nov-2016 14:07 5.7K
naefs_higekdgb2sect4tmp_4.t12z15-Nov-2016 14:07 5.7K
naefs_higekdgb2sect4tmp_mean_1.t12z15-Nov-2016 14:07 33K
naefs_higekdgb2sect5dew_3.t00z15-Nov-2016 14:07 2.9K
naefs_higekdgb2sect5max_1.t00z15-Nov-2016 14:07 1.8K
naefs_higekdgb2sect5min_1.t12z15-Nov-2016 14:07 1.8K
naefs_higekdgb2sect5tmp_2.t12z15-Nov-2016 14:07 2.9K
naefs_higekdgb2sect5tmp_3.t00z15-Nov-2016 14:07 2.9K
naefs_higekdgb2sect5tmp_6.t00z15-Nov-2016 14:07 2.7K
naefs_higekdgb2sect5tmp_mean_1.t12z15-Nov-2016 14:07 17K
naefs_prgekdgb2sect4dew_1.t12z15-Nov-2016 14:07 5.7K
naefs_prgekdgb2sect4dew_2.t00z15-Nov-2016 14:07 5.7K
naefs_prgekdgb2sect4dew_5.t00z15-Nov-2016 14:07 4.8K
naefs_prgekdgb2sect4min_1.t12z15-Nov-2016 14:07 3.5K
naefs_prgekdgb2sect4min_mean_1.t00z15-Nov-2016 14:07 6.6K
naefs_prgekdgb2sect4tmp_4.t12z15-Nov-2016 14:07 5.7K
naefs_prgekdgb2sect5dew_3.t00z15-Nov-2016 14:07 2.9K
naefs_prgekdgb2sect5max_1.t12z15-Nov-2016 14:07 1.6K
naefs_prgekdgb2sect5max_mean_1.t00z15-Nov-2016 14:07 3.5K
naefs_prgekdgb2sect5min_mean_1.t00z15-Nov-2016 14:07 3.3K
naefs_prgekdgb2sect5tmp_6.t00z15-Nov-2016 14:07 2.7K
naefs_prgekdgb2sect5tmp_6.t12z15-Nov-2016 14:07 2.7K
naefsco_gekdgb2sect315-Nov-2016 14:07 289
ekd_cmce_mxmn.EQ.10010331.t12z15-Nov-2016 14:07 137M
ekd_cmce_tdp.EQ.10010331.t00z15-Nov-2016 14:07 205M
ekd_gefs_tdp.EQ.10010331.t00z15-Nov-2016 14:07 211M
ekd_grdlst15-Nov-2016 14:07 3.7K
naefs_akgekdgb2sect4dew_3.t12z15-Nov-2016 14:07 5.7K
naefs_akgekdgb2sect4max_mean_1.t12z15-Nov-2016 14:07 1.3K
naefs_akgekdgb2sect4min_mean_2.t00z15-Nov-2016 14:07 5.3K
naefs_akgekdgb2sect4tmp_mean_2.t00z15-Nov-2016 14:07 19K
naefs_akgekdgb2sect5max_2.t12z15-Nov-2016 14:07 1.8K
naefs_akgekdgb2sect5min_mean_1.t12z15-Nov-2016 14:07 678
naefs_akgekdgb2sect5tmp_4.t12z15-Nov-2016 14:07 2.9K
naefs_akgekdgb2sect5tmp_5.t00z15-Nov-2016 14:07 2.5K
naefs_cogekdgb2sect4dew_2.t00z15-Nov-2016 14:07 2.6K
naefs_cogekdgb2sect4dew_8.t12z15-Nov-2016 14:07 2.6K
naefs_cogekdgb2sect4dew_12.t12z15-Nov-2016 14:07 3.5K
naefs_cogekdgb2sect4dew_mean_1.t12z15-Nov-2016 14:07 13K
naefs_cogekdgb2sect4max_3.t12z15-Nov-2016 14:07 2.2K
naefs_cogekdgb2sect4max_mean_1.t00z15-Nov-2016 14:07 1.3K
naefs_cogekdgb2sect4min_2.t00z15-Nov-2016 14:07 2.2K
naefs_cogekdgb2sect4min_mean_1.t00z15-Nov-2016 14:07 1.3K
naefs_cogekdgb2sect4tmp_5.t12z15-Nov-2016 14:07 2.6K
naefs_cogekdgb2sect4tmp_9.t00z15-Nov-2016 14:07 2.6K
naefs_cogekdgb2sect4tmp_mean_1.t00z15-Nov-2016 14:07 13K
naefs_cogekdgb2sect5dew_6.t12z15-Nov-2016 14:07 1.4K
naefs_cogekdgb2sect5dew_10.t12z15-Nov-2016 14:07 1.4K
naefs_cogekdgb2sect5dew_mean_2.t00z15-Nov-2016 14:07 7.2K
naefs_cogekdgb2sect5max_1.t12z15-Nov-2016 14:07 1.1K
naefs_cogekdgb2sect5tmp_9.t12z15-Nov-2016 14:07 1.4K
naefs_gekdgb2sect0-115-Nov-2016 14:07 100
naefs_higekdgb2sect4max_1.t00z15-Nov-2016 14:07 3.5K
naefs_higekdgb2sect4min_1.t12z15-Nov-2016 14:07 3.5K
naefs_higekdgb2sect4min_mean_1.t12z15-Nov-2016 14:07 7.1K
naefs_higekdgb2sect4tmp_2.t12z15-Nov-2016 14:07 5.7K
naefs_higekdgb2sect4tmp_5.t12z15-Nov-2016 14:07 4.8K
naefs_higekdgb2sect4tmp_6.t00z15-Nov-2016 14:07 5.2K
naefs_higekdgb2sect5dew_4.t00z15-Nov-2016 14:07 2.9K
naefs_higekdgb2sect5dew_6.t12z15-Nov-2016 14:07 2.7K
naefs_higekdgb2sect5max_2.t00z15-Nov-2016 14:07 1.8K
naefs_higekdgb2sect5tmp_4.t00z15-Nov-2016 14:07 2.9K
naefs_prgekdgb2sect4dew_2.t12z15-Nov-2016 14:07 5.7K
naefs_prgekdgb2sect4dew_3.t00z15-Nov-2016 14:07 5.7K
naefs_prgekdgb2sect4dew_5.t12z15-Nov-2016 14:07 4.8K
naefs_prgekdgb2sect4dew_6.t00z15-Nov-2016 14:07 5.2K
naefs_prgekdgb2sect4max_1.t00z15-Nov-2016 14:07 3.5K
naefs_prgekdgb2sect4max_mean_1.t00z15-Nov-2016 14:07 7.1K
naefs_prgekdgb2sect4min_2.t00z15-Nov-2016 14:07 3.5K
naefs_prgekdgb2sect4tmp_2.t12z15-Nov-2016 14:07 5.7K
naefs_prgekdgb2sect4tmp_5.t12z15-Nov-2016 14:07 4.8K
naefs_prgekdgb2sect4tmp_6.t00z15-Nov-2016 14:07 5.2K
naefs_prgekdgb2sect4tmp_mean_1.t12z15-Nov-2016 14:07 33K
naefs_prgekdgb2sect5dew_1.t00z15-Nov-2016 14:07 2.9K
naefs_prgekdgb2sect5dew_3.t12z15-Nov-2016 14:07 2.9K
naefs_prgekdgb2sect5max_2.t00z15-Nov-2016 14:07 1.8K
naefs_prgekdgb2sect5min_mean_1.t12z15-Nov-2016 14:07 3.5K
naefs_prgekdgb2sect5tmp_1.t00z15-Nov-2016 14:07 2.9K
naefs_prgekdgb2sect5tmp_3.t12z15-Nov-2016 14:07 2.9K
naefs_prgekdgb2sect5tmp_4.t00z15-Nov-2016 14:07 2.9K
naefs_prgekdgb2sect5tmp_mean_1.t12z15-Nov-2016 14:07 17K
ekd_cmce.vrbls.wgrib15-Nov-2016 14:07 1.9K
ekd_cmce_mxmn.EQ.04010930.t00z15-Nov-2016 14:07 141M
ekd_conststa15-Nov-2016 14:07 41K
ekd_gefs_grb2tomdlp.52.lst15-Nov-2016 14:07 887K
ekd_gefs_grb2tomdlp.56.lst15-Nov-2016 14:07 887K
ekd_gefs_mxmn.EQ.04010930.t12z15-Nov-2016 14:07 149M
ekd_gefs_tdp.EQ.10010331.t12z15-Nov-2016 14:07 208M
ekd_mos2000id.tbl15-Nov-2016 14:07 118K
naefs_akgekdgb2sect4dew_1.t00z15-Nov-2016 14:07 5.7K
naefs_akgekdgb2sect4max_mean_2.t00z15-Nov-2016 14:07 5.7K
naefs_akgekdgb2sect4tmp_1.t00z15-Nov-2016 14:07 5.7K
naefs_akgekdgb2sect4tmp_4.t00z15-Nov-2016 14:07 5.7K
naefs_akgekdgb2sect5dew_1.t12z15-Nov-2016 14:07 2.9K
naefs_akgekdgb2sect5dew_2.t00z15-Nov-2016 14:07 2.9K
naefs_akgekdgb2sect5dew_5.t00z15-Nov-2016 14:07 2.5K
naefs_akgekdgb2sect5tmp_2.t00z15-Nov-2016 14:07 2.9K
naefs_cogekdgb2sect4dew_3.t00z15-Nov-2016 14:07 2.6K
naefs_cogekdgb2sect4dew_5.t12z15-Nov-2016 14:07 2.6K
naefs_cogekdgb2sect4dew_9.t00z15-Nov-2016 14:07 2.6K
naefs_cogekdgb2sect4dew_10.t00z15-Nov-2016 14:07 2.6K
naefs_cogekdgb2sect4dew_mean_2.t12z15-Nov-2016 14:07 14K
naefs_cogekdgb2sect4max_1.t00z15-Nov-2016 14:07 2.2K
naefs_cogekdgb2sect4tmp_2.t12z15-Nov-2016 14:07 2.6K
naefs_cogekdgb2sect4tmp_6.t00z15-Nov-2016 14:07 2.6K
naefs_cogekdgb2sect4tmp_mean_1.t12z15-Nov-2016 14:07 13K
naefs_cogekdgb2sect5dew_3.t12z15-Nov-2016 14:07 1.4K
naefs_cogekdgb2sect5dew_4.t00z15-Nov-2016 14:07 1.4K
naefs_cogekdgb2sect5dew_7.t00z15-Nov-2016 14:07 1.4K
naefs_cogekdgb2sect5dew_11.t00z15-Nov-2016 14:07 1.6K
naefs_cogekdgb2sect5dew_mean_3.t00z15-Nov-2016 14:07 3.2K
naefs_cogekdgb2sect5max_mean_1.t12z15-Nov-2016 14:07 699
naefs_cogekdgb2sect5min_3.t12z15-Nov-2016 14:07 1.4K
naefs_cogekdgb2sect5tmp_4.t00z15-Nov-2016 14:07 1.4K
naefs_cogekdgb2sect5tmp_7.t00z15-Nov-2016 14:07 1.4K
naefs_cogekdgb2sect5tmp_10.t12z15-Nov-2016 14:07 1.4K
naefs_cogekdgb2sect5tmp_11.t00z15-Nov-2016 14:07 1.6K
naefs_cogekdgb2sect5tmp_mean_1.t12z15-Nov-2016 14:07 6.5K
naefs_higekdgb2sect315-Nov-2016 14:07 302
naefs_higekdgb2sect4dew_2.t12z15-Nov-2016 14:07 5.7K
naefs_higekdgb2sect4dew_6.t00z15-Nov-2016 14:07 5.2K
naefs_higekdgb2sect4min_2.t12z15-Nov-2016 14:07 3.5K
naefs_higekdgb2sect4tmp_3.t00z15-Nov-2016 14:07 5.7K
naefs_higekdgb2sect5dew_1.t00z15-Nov-2016 14:07 2.9K
naefs_higekdgb2sect5tmp_1.t00z15-Nov-2016 14:07 2.9K
naefs_prgekdgb2sect4max_mean_1.t12z15-Nov-2016 14:07 6.6K
naefs_prgekdgb2sect4min_2.t12z15-Nov-2016 14:07 3.5K
naefs_prgekdgb2sect4min_mean_1.t12z15-Nov-2016 14:07 7.1K
naefs_prgekdgb2sect5max_2.t12z15-Nov-2016 14:07 1.8K
naefs_prgekdgb2sect5max_mean_1.t12z15-Nov-2016 14:07 3.3K
naefs_prgekdgb2sect5min_1.t00z15-Nov-2016 14:07 1.6K
naefs_prgekdgb2sect5tmp_4.t12z15-Nov-2016 14:07 2.9K
ekd_analysisgrconst_pr15-Nov-2016 14:07 21K
ekd_bogusfile.dewp15-Nov-2016 14:07 151
ekd_cmce.pcp.wgrib15-Nov-2016 14:07 35
ekd_cmce_grb2tomdlp.40.lst15-Nov-2016 14:07 856K
ekd_cmce_mxmn.EQ.04010930.t12z15-Nov-2016 14:07 135M
ekd_cmce_tdp.EQ.04010930.t00z15-Nov-2016 14:07 253M
ekd_finegds15-Nov-2016 14:07 51
ekd_gefs.pcp.wgrib15-Nov-2016 14:07 35
ekd_gefs_grb2tomdlp.40.nont00z.lst15-Nov-2016 14:07 887K
ekd_gefs_grb2tomdlp.45.lst15-Nov-2016 14:07 887K
ekd_gefs_grb2tomdlp.53.lst15-Nov-2016 14:07 887K
ekd_gefs_grb2tomdlp.54.lst15-Nov-2016 14:07 887K
ekd_gefs_mxmn.EQ.10010331.t00z15-Nov-2016 14:07 140M
ekd_himos.lst15-Nov-2016 14:07 450
ekd_histation_radii15-Nov-2016 14:07 8.7K
ekd_prgranlstation_pairs15-Nov-2016 14:07 102K
ekd_prmos.lst15-Nov-2016 14:07 72
mdl_rafile_template15-Nov-2016 14:07 9.8K
naefs_akgekdgb2sect4dew_2.t00z15-Nov-2016 14:07 5.7K
naefs_akgekdgb2sect4dew_5.t00z15-Nov-2016 14:07 4.8K
naefs_akgekdgb2sect4dew_mean_1.t12z15-Nov-2016 14:07 14K
naefs_akgekdgb2sect4min_2.t00z15-Nov-2016 14:07 3.5K
naefs_akgekdgb2sect4tmp_1.t12z15-Nov-2016 14:07 5.7K
naefs_akgekdgb2sect4tmp_2.t00z15-Nov-2016 14:07 5.7K
naefs_akgekdgb2sect4tmp_4.t12z15-Nov-2016 14:07 5.7K
naefs_akgekdgb2sect4tmp_5.t12z15-Nov-2016 14:07 4.8K
naefs_akgekdgb2sect4tmp_6.t00z15-Nov-2016 14:07 5.2K
naefs_akgekdgb2sect5dew_2.t12z15-Nov-2016 14:07 2.9K
naefs_akgekdgb2sect5dew_3.t00z15-Nov-2016 14:07 2.9K
naefs_akgekdgb2sect5dew_3.t12z15-Nov-2016 14:07 2.9K
naefs_akgekdgb2sect5dew_5.t12z15-Nov-2016 14:07 2.5K
naefs_akgekdgb2sect5dew_mean_2.t00z15-Nov-2016 14:07 9.9K
naefs_akgekdgb2sect5min_2.t12z15-Nov-2016 14:07 1.8K
naefs_akgekdgb2sect5min_mean_2.t12z15-Nov-2016 14:07 2.8K
naefs_akgekdgb2sect5tmp_3.t12z15-Nov-2016 14:07 2.9K
naefs_akgekdgb2sect5tmp_4.t00z15-Nov-2016 14:07 2.9K
naefs_akgekdgb2sect5tmp_6.t12z15-Nov-2016 14:07 2.7K
naefs_akgekdgb2sect5tmp_mean_1.t00z15-Nov-2016 14:07 7.0K
naefs_cogekdgb2sect4dew_6.t12z15-Nov-2016 14:07 2.6K
naefs_cogekdgb2sect4dew_7.t12z15-Nov-2016 14:07 2.6K
naefs_cogekdgb2sect4dew_9.t12z15-Nov-2016 14:07 2.6K
naefs_cogekdgb2sect4dew_11.t00z15-Nov-2016 14:07 3.1K
naefs_cogekdgb2sect4dew_11.t12z15-Nov-2016 14:07 3.1K
naefs_cogekdgb2sect4dew_12.t00z15-Nov-2016 14:07 3.5K
naefs_cogekdgb2sect4dew_mean_1.t00z15-Nov-2016 14:07 13K
naefs_cogekdgb2sect4dew_mean_3.t00z15-Nov-2016 14:07 6.1K
naefs_cogekdgb2sect4max_1.t12z15-Nov-2016 14:07 2.2K
naefs_cogekdgb2sect4max_3.t00z15-Nov-2016 14:07 2.6K
naefs_cogekdgb2sect4max_mean_2.t00z15-Nov-2016 14:07 1.8K
naefs_cogekdgb2sect4min_2.t12z15-Nov-2016 14:07 2.2K
naefs_cogekdgb2sect4min_mean_1.t12z15-Nov-2016 14:07 1.3K
naefs_cogekdgb2sect4min_mean_2.t12z15-Nov-2016 14:07 1.8K
naefs_cogekdgb2sect4min_mean_3.t00z15-Nov-2016 14:07 3.5K
naefs_cogekdgb2sect4tmp_3.t12z15-Nov-2016 14:07 2.6K
naefs_cogekdgb2sect4tmp_4.t00z15-Nov-2016 14:07 2.6K
naefs_cogekdgb2sect4tmp_7.t00z15-Nov-2016 14:07 2.6K
naefs_cogekdgb2sect4tmp_11.t12z15-Nov-2016 14:07 3.1K
naefs_cogekdgb2sect4tmp_mean_2.t00z15-Nov-2016 14:07 14K
naefs_cogekdgb2sect5dew_5.t12z15-Nov-2016 14:07 1.4K
naefs_cogekdgb2sect5dew_8.t00z15-Nov-2016 14:07 1.4K
naefs_cogekdgb2sect5dew_8.t12z15-Nov-2016 14:07 1.4K
naefs_cogekdgb2sect5dew_9.t00z15-Nov-2016 14:07 1.4K
naefs_cogekdgb2sect5dew_12.t00z15-Nov-2016 14:07 1.8K
naefs_cogekdgb2sect5dew_12.t12z15-Nov-2016 14:07 1.8K
naefs_cogekdgb2sect5dew_mean_1.t00z15-Nov-2016 14:07 6.5K
naefs_cogekdgb2sect5max_1.t00z15-Nov-2016 14:07 1.1K
naefs_cogekdgb2sect5max_2.t12z15-Nov-2016 14:07 1.1K
naefs_cogekdgb2sect5max_3.t00z15-Nov-2016 14:07 1.4K
naefs_cogekdgb2sect5max_mean_2.t12z15-Nov-2016 14:07 929
naefs_cogekdgb2sect5min_1.t00z15-Nov-2016 14:07 1.1K
naefs_cogekdgb2sect5min_1.t12z15-Nov-2016 14:07 1.1K
naefs_cogekdgb2sect5tmp_2.t00z15-Nov-2016 14:07 1.4K
naefs_cogekdgb2sect5tmp_5.t00z15-Nov-2016 14:07 1.4K
naefs_cogekdgb2sect5tmp_5.t12z15-Nov-2016 14:07 1.4K
naefs_cogekdgb2sect5tmp_8.t00z15-Nov-2016 14:07 1.4K
naefs_cogekdgb2sect5tmp_8.t12z15-Nov-2016 14:07 1.4K
naefs_cogekdgb2sect5tmp_9.t00z15-Nov-2016 14:07 1.4K
naefs_cogekdgb2sect5tmp_11.t12z15-Nov-2016 14:07 1.6K
naefs_cogekdgb2sect5tmp_12.t00z15-Nov-2016 14:07 1.8K
naefs_cogekdgb2sect5tmp_12.t12z15-Nov-2016 14:07 1.8K
naefs_cogekdgb2sect5tmp_mean_3.t00z15-Nov-2016 14:07 3.2K
naefs_higekdgb2sect4dew_1.t00z15-Nov-2016 14:07 5.7K
naefs_higekdgb2sect4dew_3.t12z15-Nov-2016 14:07 5.7K
naefs_higekdgb2sect4dew_4.t00z15-Nov-2016 14:07 5.7K
naefs_higekdgb2sect4dew_6.t12z15-Nov-2016 14:07 5.2K
naefs_higekdgb2sect4dew_mean_1.t12z15-Nov-2016 14:07 33K
naefs_higekdgb2sect4max_mean_1.t00z15-Nov-2016 14:07 7.1K
naefs_higekdgb2sect4tmp_1.t00z15-Nov-2016 14:07 5.7K
naefs_higekdgb2sect4tmp_1.t12z15-Nov-2016 14:07 5.7K
naefs_higekdgb2sect4tmp_3.t12z15-Nov-2016 14:07 5.7K
naefs_higekdgb2sect4tmp_5.t00z15-Nov-2016 14:07 4.8K
naefs_higekdgb2sect4tmp_6.t12z15-Nov-2016 14:07 5.2K
naefs_higekdgb2sect4tmp_mean_1.t00z15-Nov-2016 14:07 33K
naefs_higekdgb2sect5dew_2.t00z15-Nov-2016 14:07 2.9K
naefs_higekdgb2sect5dew_2.t12z15-Nov-2016 14:07 2.9K
naefs_higekdgb2sect5dew_4.t12z15-Nov-2016 14:07 2.9K
naefs_higekdgb2sect5dew_5.t12z15-Nov-2016 14:07 2.5K
naefs_higekdgb2sect5dew_6.t00z15-Nov-2016 14:07 2.7K
naefs_higekdgb2sect5dew_mean_1.t12z15-Nov-2016 14:07 17K
naefs_higekdgb2sect5max_mean_1.t00z15-Nov-2016 14:07 3.5K
naefs_higekdgb2sect5min_2.t00z15-Nov-2016 14:07 1.8K
naefs_higekdgb2sect5min_mean_1.t00z15-Nov-2016 14:07 3.3K
naefs_higekdgb2sect5tmp_2.t00z15-Nov-2016 14:07 2.9K
naefs_higekdgb2sect5tmp_4.t12z15-Nov-2016 14:07 2.9K
naefs_higekdgb2sect5tmp_5.t00z15-Nov-2016 14:07 2.5K
naefs_higekdgb2sect5tmp_5.t12z15-Nov-2016 14:07 2.5K
naefs_prgekdgb2sect4dew_3.t12z15-Nov-2016 14:07 5.7K
naefs_prgekdgb2sect4dew_4.t00z15-Nov-2016 14:07 5.7K
naefs_prgekdgb2sect4dew_4.t12z15-Nov-2016 14:07 5.7K
naefs_prgekdgb2sect4dew_6.t12z15-Nov-2016 14:07 5.2K
naefs_prgekdgb2sect4dew_mean_1.t00z15-Nov-2016 14:07 33K
naefs_prgekdgb2sect4dew_mean_1.t12z15-Nov-2016 14:07 33K
naefs_prgekdgb2sect4max_2.t00z15-Nov-2016 14:07 3.5K
naefs_prgekdgb2sect4max_2.t12z15-Nov-2016 14:07 3.5K
naefs_prgekdgb2sect4min_1.t00z15-Nov-2016 14:07 3.1K
naefs_prgekdgb2sect4tmp_1.t00z15-Nov-2016 14:07 5.7K
naefs_prgekdgb2sect4tmp_1.t12z15-Nov-2016 14:07 5.7K
naefs_prgekdgb2sect4tmp_2.t00z15-Nov-2016 14:07 5.7K
naefs_prgekdgb2sect4tmp_3.t12z15-Nov-2016 14:07 5.7K
naefs_prgekdgb2sect4tmp_4.t00z15-Nov-2016 14:07 5.7K
naefs_prgekdgb2sect4tmp_5.t00z15-Nov-2016 14:07 4.8K
naefs_prgekdgb2sect5dew_1.t12z15-Nov-2016 14:07 2.9K
naefs_prgekdgb2sect5dew_2.t12z15-Nov-2016 14:07 2.9K
naefs_prgekdgb2sect5dew_5.t00z15-Nov-2016 14:07 2.5K
naefs_prgekdgb2sect5dew_5.t12z15-Nov-2016 14:07 2.5K
naefs_prgekdgb2sect5dew_6.t00z15-Nov-2016 14:07 2.7K
naefs_prgekdgb2sect5dew_mean_1.t00z15-Nov-2016 14:07 17K
naefs_prgekdgb2sect5dew_mean_1.t12z15-Nov-2016 14:07 17K
naefs_prgekdgb2sect5max_1.t00z15-Nov-2016 14:07 1.8K
naefs_prgekdgb2sect5min_1.t12z15-Nov-2016 14:07 1.8K
naefs_prgekdgb2sect5tmp_1.t12z15-Nov-2016 14:07 2.9K
naefs_prgekdgb2sect5tmp_2.t12z15-Nov-2016 14:07 2.9K
naefs_prgekdgb2sect5tmp_3.t00z15-Nov-2016 14:07 2.9K
naefs_prgekdgb2sect5tmp_5.t00z15-Nov-2016 14:07 2.5K
naefs_prgekdgb2sect5tmp_5.t12z15-Nov-2016 14:07 2.5K
naefs_prgekdgb2sect5tmp_mean_1.t00z15-Nov-2016 14:07 17K
ekd_analysisgrconst_2half15-Nov-2016 14:07 2.5M
ekd_analysisgrconst_hi15-Nov-2016 14:07 254K
ekd_gefs.vrbls.wgrib15-Nov-2016 14:07 1.9K
ekd_gefs_grb2tomdlp.43.lst15-Nov-2016 14:07 887K
ekd_gefs_grb2tomdlp.46.lst15-Nov-2016 14:07 887K
ekd_gefs_grb2tomdlp.47.lst15-Nov-2016 14:07 887K
ekd_gefs_grb2tomdlp.51.lst15-Nov-2016 14:07 887K
ekd_gefs_grb2tomdlp.59.lst15-Nov-2016 14:07 887K
ekd_gefs_grb2tomdlp.60.lst15-Nov-2016 14:07 887K
ekd_gefs_mxmn.EQ.04010930.t00z15-Nov-2016 14:07 163M
ekd_gfsxxramerge.t00z15-Nov-2016 14:07 2.3K
ekd_gfsxxramerge_ak.t00z15-Nov-2016 14:07 2.3K
ekd_higranlstation_pairs15-Nov-2016 14:07 14K
naefs_akgekdgb2sect315-Nov-2016 14:07 289
naefs_akgekdgb2sect4dew_2.t12z15-Nov-2016 14:07 5.7K
naefs_akgekdgb2sect4dew_6.t12z15-Nov-2016 14:07 5.2K
naefs_akgekdgb2sect4dew_mean_2.t12z15-Nov-2016 14:07 19K
naefs_akgekdgb2sect4max_1.t12z15-Nov-2016 14:07 3.1K
naefs_akgekdgb2sect4max_2.t00z15-Nov-2016 14:07 3.5K
naefs_akgekdgb2sect4max_mean_1.t00z15-Nov-2016 14:07 1.3K
naefs_akgekdgb2sect4min_2.t12z15-Nov-2016 14:07 3.5K
naefs_akgekdgb2sect4min_mean_1.t12z15-Nov-2016 14:07 1.3K
naefs_akgekdgb2sect4tmp_3.t00z15-Nov-2016 14:07 5.7K
naefs_akgekdgb2sect4tmp_3.t12z15-Nov-2016 14:07 5.7K
naefs_akgekdgb2sect4tmp_6.t12z15-Nov-2016 14:07 5.2K
naefs_akgekdgb2sect4tmp_mean_1.t12z15-Nov-2016 14:07 14K
naefs_akgekdgb2sect5dew_4.t12z15-Nov-2016 14:07 2.9K
naefs_akgekdgb2sect5dew_mean_2.t12z15-Nov-2016 14:07 9.9K
naefs_akgekdgb2sect5max_mean_1.t12z15-Nov-2016 14:07 678
naefs_akgekdgb2sect5max_mean_2.t00z15-Nov-2016 14:07 2.8K
naefs_akgekdgb2sect5min_1.t00z15-Nov-2016 14:07 1.6K
naefs_akgekdgb2sect5min_mean_2.t00z15-Nov-2016 14:07 2.6K
naefs_akgekdgb2sect5tmp_1.t12z15-Nov-2016 14:07 2.9K
naefs_akgekdgb2sect5tmp_mean_2.t00z15-Nov-2016 14:07 9.9K
naefs_cogekdgb2sect4dew_1.t12z15-Nov-2016 14:07 2.6K
naefs_cogekdgb2sect4dew_4.t12z15-Nov-2016 14:07 2.6K
naefs_cogekdgb2sect4dew_5.t00z15-Nov-2016 14:07 2.6K
naefs_cogekdgb2sect4dew_8.t00z15-Nov-2016 14:07 2.6K
naefs_cogekdgb2sect4dew_mean_2.t00z15-Nov-2016 14:07 14K
naefs_cogekdgb2sect4max_mean_3.t12z15-Nov-2016 14:07 3.5K
naefs_cogekdgb2sect4min_1.t12z15-Nov-2016 14:07 2.2K
naefs_cogekdgb2sect4min_mean_3.t12z15-Nov-2016 14:07 4.0K
naefs_cogekdgb2sect4tmp_1.t12z15-Nov-2016 14:07 2.6K
naefs_cogekdgb2sect4tmp_2.t00z15-Nov-2016 14:07 2.6K
naefs_cogekdgb2sect4tmp_5.t00z15-Nov-2016 14:07 2.6K
naefs_cogekdgb2sect4tmp_8.t12z15-Nov-2016 14:07 2.6K
naefs_cogekdgb2sect4tmp_12.t12z15-Nov-2016 14:07 3.5K
naefs_cogekdgb2sect4tmp_mean_3.t12z15-Nov-2016 14:07 6.1K
naefs_cogekdgb2sect5dew_3.t00z15-Nov-2016 14:07 1.4K
naefs_cogekdgb2sect5dew_9.t12z15-Nov-2016 14:07 1.4K
naefs_cogekdgb2sect5dew_mean_1.t12z15-Nov-2016 14:07 6.5K
naefs_cogekdgb2sect5max_2.t00z15-Nov-2016 14:07 1.1K
naefs_cogekdgb2sect5max_mean_1.t00z15-Nov-2016 14:07 699
naefs_cogekdgb2sect5min_2.t12z15-Nov-2016 14:07 1.1K
naefs_cogekdgb2sect5min_3.t00z15-Nov-2016 14:07 1.1K
naefs_cogekdgb2sect5min_mean_1.t00z15-Nov-2016 14:07 699
naefs_cogekdgb2sect5min_mean_3.t12z15-Nov-2016 14:07 2.0K
naefs_cogekdgb2sect5tmp_2.t12z15-Nov-2016 14:07 1.4K
naefs_cogekdgb2sect5tmp_3.t12z15-Nov-2016 14:07 1.4K
naefs_cogekdgb2sect5tmp_6.t12z15-Nov-2016 14:07 1.4K
naefs_cogekdgb2sect5tmp_10.t00z15-Nov-2016 14:07 1.4K
naefs_higekdgb2sect4dew_1.t12z15-Nov-2016 14:07 5.7K
naefs_higekdgb2sect4dew_2.t00z15-Nov-2016 14:07 5.7K
naefs_higekdgb2sect4dew_5.t00z15-Nov-2016 14:07 4.8K
naefs_higekdgb2sect4dew_5.t12z15-Nov-2016 14:07 4.8K
naefs_higekdgb2sect4max_mean_1.t12z15-Nov-2016 14:07 6.6K
naefs_higekdgb2sect4min_2.t00z15-Nov-2016 14:07 3.5K
naefs_higekdgb2sect5dew_3.t12z15-Nov-2016 14:07 2.9K
naefs_higekdgb2sect5max_1.t12z15-Nov-2016 14:07 1.6K
naefs_higekdgb2sect5max_mean_1.t12z15-Nov-2016 14:07 3.3K
naefs_higekdgb2sect5min_2.t12z15-Nov-2016 14:07 1.8K
naefs_higekdgb2sect5min_mean_1.t12z15-Nov-2016 14:07 3.5K
naefs_higekdgb2sect5tmp_3.t12z15-Nov-2016 14:07 2.9K
naefs_higekdgb2sect5tmp_6.t12z15-Nov-2016 14:07 2.7K
naefs_prgekdgb2sect4tmp_3.t00z15-Nov-2016 14:07 5.7K
naefs_prgekdgb2sect4tmp_mean_1.t00z15-Nov-2016 14:07 33K
naefs_prgekdgb2sect5dew_4.t00z15-Nov-2016 14:07 2.9K
naefs_prgekdgb2sect5dew_6.t12z15-Nov-2016 14:07 2.7K
naefs_prgekdgb2sect5min_2.t12z15-Nov-2016 14:07 1.8K